Regional Weather Roundup
Issued by NWS

Home | Current Version | Previous Version | Graphics & Text | Print | Product List | Glossary On
Versions: 1 2 3 4 5 6 7 8 9 10 11 12 13 14 15 16 17 18 19 20 21 22 23 24 25 26 27
000
ASUS45 KSLC 200510
RWRUT

UTAH REGIONAL WEATHER ROUNDUP
NATIONAL WEATHER SERVICE SALT LAKE CITY UT
1100 PM MDT THU OCT 19 2017

UTZ001>011-023>025-200600-

NORTHERN UTAH

CITY           SKY/WX    TMP DP  RH WIND       PRES   REMARKS
BRIGHAM CITY   PTCLDY    53  27  37 CALM      29.76F
HILL AFB       PTCLDY    63  37  38 S15       29.78S
LOGAN          CLEAR     47  28  47 NE3       29.77F
OGDEN          MOCLDY    65  38  36 S17       29.75F
SALT LAKE CITY MOCLDY    67  40  37 SE9       29.76F
TOOELE VALLEY  PTCLDY    64  36  34 S17       29.75F
WENDOVER       CLEAR     46  23  40 CALM      29.74F
WEST JORDAN    PTCLDY    60  41  49 S10       29.81F

$$

UTZ011>015-024>027-200600-

CENTRAL/NORTHEAST UTAH

CITY           SKY/WX    TMP DP  RH WIND       PRES   REMARKS
PROVO AIRPORT  MOCLDY    60  42  51 VRB3      29.83F
MOAB/CANYONLAN PTCLDY    61  29  29 E6        29.88S
DELTA          PTCLDY    54  36  50 S8        29.83S
PRICE          MOCLDY    55  25  31 NE7       29.93F
RICHFIELD      CLEAR     48  36  61 SE5       29.91F
ROOSEVELT      CLOUDY    50  30  46 SW3       29.92F
VERNAL         CLOUDY    49  27  42 W6        29.91S

$$

UTZ013>016-019>022-027-200600-

SOUTHERN UTAH

CITY           SKY/WX    TMP DP  RH WIND       PRES   REMARKS
BRYCE CANYON   CLEAR     39  30  70 W6        30.06F WCI  35
CEDAR CITY     CLEAR     53  31  42 SW5       29.92S
MILFORD        CLEAR     56  33  42 S12       29.88S
ST GEORGE      MOCLDY    66  31  27 CALM      29.81R
HANKSVILLE     MOCLDY    64  34  32 CALM      29.90S
KANAB          CLEAR     50  32  50 NE6       29.97R
BLANDING         N/A     52  33  48 N6        30.08S

$$

REGIONAL REPORTS     COLORADO/ARIZONA

CITY           SKY/WX    TMP DP  RH WIND       PRES   REMARKS
CRAIG, CO      PTCLDY    48  32  53 E3        29.97F
GRAND JUNCTION MOCLDY    61  30  31 E9        29.91F
RIFLE, CO      CLOUDY    55  30  38 E8        29.96F
MONTROSE, CO   CLOUDY    55  31  39 S8        30.01F
CORTEZ, CO     MOCLDY    51  34  52 E5        30.04S
COLORADO CITY    N/A     46  32  57 SE6       29.95S
PAGE, AZ       PTCLDY    70  38  31 S8        29.88S
GRAND CANYON   CLEAR     40  27  59 CALM      30.07R
KINGMAN, AZ    CLEAR     69  29  22 VRB3      29.87S
FLAGSTAFF, AZ  CLEAR     44  27  51 CALM      30.11R

$$

REGIONAL REPORTS    NEVADA/IDAHO/WYOMING

CITY           SKY/WX    TMP DP  RH WIND       PRES   REMARKS
LAS VEGAS, NV  CLEAR     76  22  13 S10       29.75R
ELY, NY        CLEAR     49  25  39 S12       29.87S
ELKO, NV       CLEAR     46  17  31 E3        29.73F
POCATELLO, ID  CLEAR     63  18  17 S22G30    29.69F
BURLEY, ID     CLEAR     58  17  20 SE6       29.65F
FORT BRIDGER,    N/A     56  25  30 SW12      29.96F
EVANSTON, WY   PTCLDY    50  31  48 S9        29.93F
ROCK SPRINGS,  CLEAR     51  25  36 SW15      29.92F
KEMMERER, WY   PTCLDY    50  14  23 S5        29.95S

$$




USA.gov is the U.S. government's official web portal to all federal, state and local government web resources and services.